Location: Unspecified
(0.0000°N, 0.0000°E)
Time: 18:42:08
(UTC+00:00)

Hubble Space Telescope - Pass Details

Date: 15 January 2026
Orbit: 479 x 481 km, 28.5° (Epoch: 19 January)

Event Time Altitude Azimuth Distance (km) Brightness Sun altitude
Rises 19:27:50 0° 250° (WSW) 2,520 5.9 -18.2°
Reaches altitude 10° 19:30:06 10° 256° (WSW) 1,641 4.5 -18.7°
Maximum altitude 19:33:43 45° 330° (NNW) 659 1.2 -19.6°
Enters shadow 19:34:23 40° 1° (N) 714 1.2 -19.7°
